Stündliche Wetter Labedzie

Heute, 8 Mai, Samstag

Zeit Temperatur Niederschläge Wind Luftdruck Luftfeuchtigkeit
00:00 0°C° 0 mm 4 m/S 750 mmHg 95%
01:00 0°C° 0 mm 4 m/S 750 mmHg 95%
02:00 0°C° 0 mm 4 m/S 751 mmHg 96%
03:00 -1°C° 0 mm 4 m/S 751 mmHg 97%
04:00 0°C° 0 mm 3 m/S 751 mmHg 98%
05:00 0°C° 0 mm 4 m/S 751 mmHg 94%
06:00 +1°C° 0 mm 4 m/S 752 mmHg 91%
07:00 +2°C° 0 mm 5 m/S 752 mmHg 87%
08:00 +3°C° 0 mm 5 m/S 752 mmHg 82%
09:00 +5°C° 0 mm 5 m/S 753 mmHg 78%
10:00 +5°C° 0 mm 5 m/S 753 mmHg 73%
11:00 +7°C° 0 mm 5 m/S 753 mmHg 63%
12:00 +9°C° 0 mm 5 m/S 753 mmHg 54%
13:00 +10°C° 0 mm 5 m/S 753 mmHg 44%
14:00 +11°C° 0 mm 4 m/S 753 mmHg 45%
15:00 +11°C° 0 mm 4 m/S 753 mmHg 45%
16:00 +11°C° 0 mm 3 m/S 753 mmHg 45%
17:00 +10°C° 0 mm 3 m/S 753 mmHg 52%
18:00 +9°C° 0 mm 2 m/S 753 mmHg 59%
19:00 +9°C° 0 mm 1 m/S 753 mmHg 66%
20:00 +7°C° 0 mm 2 m/S 753 mmHg 67%
21:00 +6°C° 0 mm 2 m/S 753 mmHg 67%
22:00 +5°C° 0 mm 3 m/S 753 mmHg 68%
23:00 +5°C° 0 mm 3 m/S 752 mmHg 66%

Morgen, 9 Mai, Sonntag

Zeit Temperatur Niederschläge Wind Luftdruck Luftfeuchtigkeit
00:00 +5°C° 0 mm 4 m/S 752 mmHg 64%
01:00 +5°C° 0 mm 4 m/S 752 mmHg 63%
02:00 +5°C° 0.1 mm 4 m/S 751 mmHg 65%
03:00 +5°C° 0.1 mm 5 m/S 751 mmHg 68%
04:00 +5°C° 0.1 mm 5 m/S 750 mmHg 70%
05:00 +6°C° 0.1 mm 5 m/S 750 mmHg 72%
06:00 +6°C° 0.1 mm 5 m/S 750 mmHg 74%
07:00 +5°C° 0.1 mm 6 m/S 750 mmHg 76%
08:00 +9°C° 0 mm 6 m/S 750 mmHg 69%
09:00 +13°C° 0 mm 6 m/S 750 mmHg 63%
10:00 +15°C° 0 mm 6 m/S 750 mmHg 56%
11:00 +17°C° 0 mm 6 m/S 749 mmHg 54%
12:00 +19°C° 0 mm 6 m/S 749 mmHg 52%
13:00 +21°C° 0 mm 6 m/S 749 mmHg 50%
14:00 +21°C° 0 mm 6 m/S 749 mmHg 51%
15:00 +22°C° 0 mm 5 m/S 749 mmHg 51%
16:00 +22°C° 0 mm 5 m/S 748 mmHg 52%
17:00 +20°C° 0 mm 4 m/S 748 mmHg 59%
18:00 +19°C° 0 mm 4 m/S 748 mmHg 67%
19:00 +17°C° 0 mm 4 m/S 748 mmHg 74%
20:00 +15°C° 0 mm 4 m/S 749 mmHg 79%
21:00 +14°C° 0 mm 4 m/S 749 mmHg 83%
22:00 +13°C° 0 mm 4 m/S 749 mmHg 88%
23:00 +13°C° 0 mm 4 m/S 749 mmHg 88%

übermorgen, 10 Mai, Montag

Zeit Temperatur Niederschläge Wind Luftdruck Luftfeuchtigkeit
00:00 +12°C° 0 mm 4 m/S 749 mmHg 88%
01:00 +12°C° 0 mm 4 m/S 749 mmHg 87%
02:00 +11°C° 0 mm 4 m/S 748 mmHg 85%
03:00 +10°C° 0 mm 5 m/S 748 mmHg 82%
04:00 +9°C° 0 mm 5 m/S 748 mmHg 79%
05:00 +12°C° 0 mm 5 m/S 748 mmHg 74%
06:00 +13°C° 0 mm 6 m/S 748 mmHg 70%
07:00 +14°C° 0 mm 6 m/S 748 mmHg 65%
08:00 +16°C° 0 mm 7 m/S 748 mmHg 60%
09:00 +17°C° 0 mm 7 m/S 748 mmHg 55%
10:00 +20°C° 0 mm 7 m/S 747 mmHg 50%
11:00 +21°C° 0 mm 7 m/S 747 mmHg 50%
12:00 +21°C° 0 mm 7 m/S 747 mmHg 50%
13:00 +22°C° 0 mm 8 m/S 747 mmHg 49%
14:00 +22°C° 0 mm 7 m/S 747 mmHg 51%
15:00 +23°C° 0 mm 6 m/S 747 mmHg 53%
16:00 +23°C° 0 mm 5 m/S 747 mmHg 55%
17:00 +22°C° 0 mm 4 m/S 748 mmHg 61%
18:00 +20°C° 0 mm 3 m/S 748 mmHg 67%
19:00 +19°C° 0 mm 2 m/S 748 mmHg 74%
20:00 +18°C° 0 mm 2 m/S 748 mmHg 79%
21:00 +17°C° 0 mm 2 m/S 748 mmHg 84%
22:00 +15°C° 0 mm 2 m/S 748 mmHg 89%
23:00 +15°C° 0 mm 2 m/S 748 mmHg 91%

11 Mai, Dienstag

Zeit Temperatur Niederschläge Wind Luftdruck Luftfeuchtigkeit
00:00 +14°C° 0 mm 2 m/S 748 mmHg 93%
01:00 +14°C° 0 mm 2 m/S 748 mmHg 94%
02:00 +13°C° 0 mm 2 m/S 748 mmHg 95%
03:00 +13°C° 0 mm 2 m/S 747 mmHg 95%
04:00 +13°C° 0 mm 2 m/S 747 mmHg 96%
05:00 +13°C° 0 mm 3 m/S 747 mmHg 89%
06:00 +15°C° 0 mm 4 m/S 747 mmHg 82%
07:00 +17°C° 0 mm 5 m/S 746 mmHg 76%
08:00 +19°C° 0 mm 5 m/S 746 mmHg 70%
09:00 +20°C° 0 mm 5 m/S 746 mmHg 64%
10:00 +22°C° 0 mm 5 m/S 746 mmHg 58%
11:00 +23°C° 0 mm 5 m/S 746 mmHg 57%
12:00 +25°C° 0 mm 5 m/S 745 mmHg 55%
13:00 +25°C° 0 mm 4 m/S 745 mmHg 53%
14:00 +25°C° 0 mm 4 m/S 745 mmHg 55%
15:00 +25°C° 0 mm 4 m/S 745 mmHg 57%
16:00 +25°C° 0 mm 4 m/S 745 mmHg 59%
17:00 +22°C° 0 mm 3 m/S 745 mmHg 65%
18:00 +21°C° 0 mm 3 m/S 745 mmHg 71%
19:00 +20°C° 0 mm 3 m/S 745 mmHg 77%
20:00 +19°C° 0 mm 2 m/S 745 mmHg 80%
21:00 +18°C° 0 mm 2 m/S 745 mmHg 83%
22:00 +18°C° 0 mm 1 m/S 745 mmHg 86%
23:00 +17°C° 0 mm 2 m/S 745 mmHg 88%

12 Mai, Mittwoch

Zeit Temperatur Niederschläge Wind Luftdruck Luftfeuchtigkeit
00:00 +17°C° 0 mm 2 m/S 745 mmHg 90%
01:00 +16°C° 0 mm 3 m/S 745 mmHg 92%
02:00 +15°C° 0 mm 4 m/S 745 mmHg 93%
03:00 +14°C° 0 mm 4 m/S 745 mmHg 93%
04:00 +14°C° 0 mm 5 m/S 745 mmHg 94%
05:00 +15°C° 0 mm 5 m/S 745 mmHg 88%
06:00 +16°C° 0 mm 5 m/S 745 mmHg 83%
07:00 +16°C° 0 mm 5 m/S 745 mmHg 77%
08:00 +19°C° 0 mm 5 m/S 745 mmHg 71%
09:00 +21°C° 0 mm 6 m/S 745 mmHg 66%
10:00 +22°C° 0 mm 6 m/S 745 mmHg 60%
11:00 +23°C° 0 mm 5 m/S 745 mmHg 59%
12:00 +25°C° 0 mm 5 m/S 745 mmHg 57%
13:00 +26°C° 0 mm 5 m/S 745 mmHg 55%
14:00 +23°C° 0.3 mm 4 m/S 745 mmHg 62%
15:00 +22°C° 0.3 mm 4 m/S 745 mmHg 68%
16:00 +21°C° 0.3 mm 3 m/S 745 mmHg 75%
17:00 +19°C° 0.7 mm 3 m/S 745 mmHg 80%
18:00 +18°C° 0.7 mm 3 m/S 746 mmHg 85%
19:00 +16°C° 0.7 mm 3 m/S 746 mmHg 90%
20:00 +14°C° 0.2 mm 3 m/S 746 mmHg 91%
21:00 +13°C° 0.2 mm 3 m/S 747 mmHg 92%
22:00 +13°C° 0.2 mm 3 m/S 747 mmHg 92%
23:00 +12°C° 0 mm 3 m/S 747 mmHg 93%

13 Mai, Donnerstag

Zeit Temperatur Niederschläge Wind Luftdruck Luftfeuchtigkeit
00:00 +12°C° 0 mm 3 m/S 747 mmHg 94%
01:00 +11°C° 0 mm 3 m/S 747 mmHg 94%
02:00 +11°C° 0 mm 3 m/S 747 mmHg 94%
03:00 +10°C° 0 mm 3 m/S 747 mmHg 94%
04:00 +10°C° 0 mm 3 m/S 747 mmHg 94%
05:00 +11°C° 0 mm 3 m/S 747 mmHg 88%
06:00 +11°C° 0 mm 4 m/S 747 mmHg 82%
07:00 +12°C° 0 mm 4 m/S 747 mmHg 77%
08:00 +14°C° 0 mm 4 m/S 747 mmHg 69%
09:00 +15°C° 0 mm 4 m/S 747 mmHg 61%
10:00 +18°C° 0 mm 4 m/S 747 mmHg 54%
11:00 +19°C° 0 mm 3 m/S 747 mmHg 51%
12:00 +19°C° 0 mm 3 m/S 746 mmHg 47%
13:00 +20°C° 0 mm 3 m/S 746 mmHg 44%
14:00 +19°C° 0 mm 3 m/S 746 mmHg 50%
15:00 +18°C° 0 mm 3 m/S 746 mmHg 56%
16:00 +17°C° 0 mm 3 m/S 746 mmHg 62%
17:00 +16°C° 0 mm 3 m/S 746 mmHg 65%
18:00 +16°C° 0 mm 2 m/S 746 mmHg 69%
19:00 +15°C° 0 mm 2 m/S 746 mmHg 73%
20:00 +14°C° 0 mm 2 m/S 745 mmHg 73%
21:00 +14°C° 0 mm 2 m/S 745 mmHg 74%
22:00 +13°C° 0 mm 1 m/S 745 mmHg 75%
23:00 +13°C° 0 mm 1 m/S 745 mmHg 77%
Mehr zeigen

Wir brauchen deine Erlaubnis

Meteoprog und unser Service Anbieter werden persönliche Daten aufbewahren, so wie Cookies, Geräte Bezeichnung oder ähnliche Technologien von deinem Gerät und Prozess, so wie Persönliche Daten Inhalte und Werbungen, genauso wie social Media und den Verkehr zu analysieren.

  • Aufbewahrung und/oder Zugang zu deiner Geräte Informationen.

    Cookies, Geräte Bezeichnung oder andere Informationen, können aufbewahrt oder Zugang zu deinem Gerät erhalten, für den Grund, der oben angegeben wird.

  • Personalisierte Werbung und Inhalte, Messungen, Einblick in das Publikum und Produkt Entwicklung.

    Werbungen und Inhalte können personalisiert werden, basierend auf ein Profil. Mehr Daten können besser personalisierte Werbungen und Inhalte hinzufügen. Werbung und Inhalte können gezeigt und gemessen werden. Einblicke über das Publikum, welche die Werbung gesehen haben und den Inhalt, können abgeleitet werden. So wie Daten können genutzt werden, um es zu verbessern oder die Benutzer Erfahrung zu verbessern das System und die Software.

Wenn du “Ich stimme zu” klickst, erlaubst du uns, die Cookies zu benutzen die Geräte Bezeichnung, den Web oder ähnliche Technologien zu benutzen. Deine Settings, können in deinem Gerät bei deinem Browser geändert werden.

Für den bestimmten Zweck, berechtigten Interessen beruhen darauf, mehr als auf den Inhalt. Du kannst mehr darüber in unseren Privaten und Cookie Politik lesen.